Location: Township of Marena
(38.1747°N, 99.6798°W)
Time: 14:52:20
(UTC+00:00)

CZ-4B R/B - Pass Details

Date: 26 October 2020
Orbit: 808 x 882 km, 99.1° (Epoch: 28 November)

Event Time Altitude Azimuth Distance (km) Brightness Sun altitude
Rises 00:20:18 0° 175° (S) 3,461 6.5 -7.2°
Reaches altitude 10° 00:22:44 10° 178° (S) 2,522 5.8 -7.7°
Maximum altitude 00:28:16 60° 258° (WSW) 987 4.0 -8.8°
Drops below altitude 10° 00:33:46 10° 339° (NNW) 2,500 5.8 -9.9°
Sets 00:36:11 0° 343° (NNW) 3,430 6.5 -10.3°
